Flag for Turkey Weather past 2 weeks in Mersin, Turkey

Now
54 °F

Partly cloudy.


Feels Like: 52 °F
Forecast: 35 / 56 °F
Wind: 7 mph from North

Location: Adana / Sakirpasa

Current Time: Dec 22, 2014 at 7:17:36 PM

Latest Report: Dec 22, 2014 at 6:50 PM


Visibility: N/A

Pressure: 30.04 "Hg

Humidity: 30%

Dew point: 23 °F

Location of MersinLocation

Historic Weather in Mersin — Graph

°F

Mersin temperature yesterday

Maximum temperature yesterday: 64 °F (at 12:50 PM)
Minimum temperature yesterday: 43 °F (at 2:50 AM)
Average temperature yesterday: 53 °F

Past Weeks' High & Low Weather Summary

 TemperatureHumidityPressure
High72 °F (Dec 8, 12:20 PM)100% (Dec 21, 3:20 AM)30.30 "Hg (Dec 21, 3:20 AM)
Low43 °F (Dec 15, 4:50 AM)31% (Dec 22, 3:20 PM)29.86 "Hg (Dec 9, 3:20 AM)
Average56 °F71%30.10 "Hg
* Reported Dec 7 5:20 PM — Dec 22 5:50 PM, Mersin, Weather by CustomWeather, © 2014

Note: Actual official high and low records may vary slightly from our data, if they occured in-between our weather recording intervals... More about our weather records

Advertising

Mersin weather history for previous 24 hours

 ConditionsComfort  
Time TempWeatherWind HumidityBarometerVisibility
5:50 PM
Dec 22
52 °FPartly cloudy.9 mph47%30.01 "HgN/A
5:20 PM50 °FPartly cloudy.8 mph54%30.01 "HgN/A
4:50 PM54 °FPartly cloudy.9 mph44%29.98 "HgN/A
4:20 PM57 °FBroken clouds.10 mph31%29.98 "HgN/A
3:50 PM57 °FBroken clouds.13 mph31%29.98 "HgN/A
3:20 PM59 °FBroken clouds.15 mph31%29.95 "HgN/A
2:50 PM59 °FBroken clouds.12 mph34%29.95 "HgN/A
2:20 PM59 °FBroken clouds.6 mph39%29.95 "HgN/A
1:50 PM59 °FBroken clouds.8 mph42%29.95 "HgN/A
1:20 PM59 °FBroken clouds.9 mph39%29.95 "HgN/A
12:50 PM59 °FBroken clouds.7 mph42%29.95 "HgN/A
12:20 PM59 °FBroken clouds.7 mph39%29.95 "HgN/A
11:50 AM57 °FBroken clouds.7 mph44%29.95 "HgN/A
11:20 AM57 °FBroken clouds.10 mph51%29.98 "HgN/A
10:50 AM55 °FBroken clouds.7 mph67%29.98 "HgN/A
10:20 AM55 °FBroken clouds.7 mph72%29.98 "HgN/A
9:50 AM54 °FBroken clouds.8 mph72%30.01 "HgN/A
9:20 AM54 °FBroken clouds.9 mph72%30.01 "HgN/A
8:50 AM52 °FBroken clouds.8 mph82%30.01 "HgN/A
8:20 AM50 °FBroken clouds.6 mph82%29.98 "HgN/A
7:50 AM48 °FFog.2 mph82%29.98 "Hg2 mi
7:20 AM50 °FFog.7 mph76%29.98 "Hg2 mi
6:50 AM50 °FFog.5 mph76%29.98 "Hg2 mi
6:20 AM46 °FFog.No wind87%29.98 "Hg2 mi
5:50 AM46 °FFog.2 mph87%29.98 "Hg2 mi
5:20 AM48 °FFog.6 mph87%29.98 "Hg2 mi
4:50 AM48 °FFog.5 mph82%29.98 "Hg2 mi
4:20 AM48 °FFog.7 mph87%29.98 "Hg2 mi
3:50 AM50 °FFog.7 mph82%29.98 "Hg2 mi
3:20 AM52 °FFog.6 mph82%30.01 "Hg2 mi
2:50 AM50 °FFog.6 mph88%30.01 "Hg2 mi
2:20 AM48 °FFog.7 mph87%30.01 "Hg2 mi
1:50 AM50 °FFog.6 mph88%30.01 "Hg2 mi
1:20 AM52 °FFog.6 mph82%30.04 "Hg2 mi
12:50 AM52 °FFog.6 mph82%30.04 "Hg2 mi
12:20 AM52 °FFog.7 mph88%30.04 "Hg2 mi
11:50 PM
Dec 21
54 °FFog.5 mph82%30.04 "Hg2 mi
11:20 PM52 °FFog.7 mph88%30.07 "Hg2 mi
10:50 PM54 °FFog.5 mph88%30.07 "Hg2 mi
10:20 PM52 °FFog.6 mph94%30.07 "Hg2 mi
9:50 PM52 °FFog.6 mph88%30.07 "Hg2 mi
9:20 PM54 °FSprinkles. Fog.3 mph88%30.07 "Hg2 mi
8:50 PM55 °FSprinkles. Fog.5 mph88%30.07 "Hg1 mi
8:20 PM54 °FFog.2 mph88%30.07 "Hg1 mi
7:50 PM54 °FSnow. Overcast.3 mph82%30.07 "Hg2 mi
7:20 PM55 °FFog.3 mph82%30.07 "Hg1 mi
Weather by CustomWeather, © 2014

See weather overviewHow to use our weather pages